Location: Huberhof
(49.2050°N, 7.4980°E)
Time: 01:08:29
(UTC+00:00)

Cosmos 2074 Rocket - Pass Details

Date: 29 October 2020
Orbit: 966 x 987 km, 82.9° (Epoch: 26 November)

Event Time Altitude Azimuth Distance (km) Brightness Sun altitude
Rises 18:50:37 0° 352° (N) 3,674 7.2 -26.2°
Reaches altitude 10° 18:53:11 10° 357° (N) 2,721 6.5 -26.6°
Enters shadow 18:58:06 50° 34° (NNE) 1,226 4.3 -27.4°
